Regional Weather Roundup
Issued by NWS

Home | Current Version | Previous Version | Graphics & Text | Print | Product List | Glossary On
Versions: 1 2 3 4 5 6 7 8 9 10 11 12 13 14 15 16 17 18 19 20 21 22 23 24 25 26 27 28
000
ASUS45 KCYS 080210
RWRWY

WYOMING REGIONAL WEATHER ROUNDUP
NATIONAL WEATHER SERVICE CHEYENNE WY
700 PM MST WED DEC 07 2016

NOTE:  "FAIR" INDICATES FEW OR NO CLOUDS BELOW 12,000 FEET
WITH NO SIGNIFICANT WEATHER AND/OR OBSTRUCTIONS TO VISIBILITY.

WYZ001-080300-
YELLOWSTONE NATIONAL PARK

CITY           SKY/WX    TMP DP  RH WIND       PRES   REMARKS
LK YELLOWSTONE   N/A     -9 -12  87 NW3       30.15R
W YELLOWSTONE  NOT AVBL

$$
WYZ002>013-054>058-071-098>099-080300-
NORTHERN WYOMING

CITY           SKY/WX    TMP DP  RH WIND       PRES   REMARKS
JACKSON        CLEAR    -11 -13  92 N6        30.23R WCI -25
CODY           FAIR      -6 -11  79 S6        30.37R WCI -19
GREYBULL       FAIR       3  -3  76 SE5       30.46R WCI  -6
WORLAND        FAIR       2  -3  80 SE7       30.43R WCI -11
SHERIDAN       FAIR      -2 -10  69 E3        30.46R
BUFFALO        FAIR      -2 -11  65 W3        30.37R
GILLETTE       FAIR      -6 -10  83 W12       30.41R WCI -25
HULETT         FAIR       0  -6  78 SW3       30.41R
NEWCASTLE      FAIR       1  -6  71 N9        30.41S WCI -14

$$
WYZ014>020-022>026-101>103-080300-
CENTRAL WYOMING

CITY           SKY/WX    TMP DP  RH WIND       PRES   REMARKS
BIG PINEY      CLOUDY    -1  -6  79 N5        30.20R WCI -11
PINEDALE       FAIR     -15 -20  76 W12       30.21R WCI -36
DUBOIS         LGT SNOW   0  -4  85 CALM      30.16R
LANDER         MOCLDY     3  -3  76 SW7       30.29R WCI  -9
RIVERTON       MOCLDY     4  -3  73 NE6       30.31R WCI  -7
CASPER         FAIR     -21 -21 100 CALM      30.33R
DOUGLAS        FAIR      -5 -12  72 NW3       30.38R

$$
WYZ021-027>030-104>119-080300-
SOUTHERN WYOMING

CITY           SKY/WX    TMP DP  RH WIND       PRES   REMARKS
EVANSTON       FAIR       9   0  67 N5        30.18R WCI   1
FORT BRIDGER   FAIR      10   1  66 N3        30.22R
ROCK SPRINGS   FAIR       2  -3  80 S7        30.21R WCI -11
DIXON          FAIR      -1  -7  74 CALM      30.28R
RAWLINS        FAIR      -9 -14  78 W3        30.21R
SARATOGA       FAIR      -6  -9  84 S7        30.22R WCI -20
LARAMIE        FAIR      -7 -11  83 E5        30.17R WCI -18
CHEYENNE       FAIR      -7 -11  83 W5        30.26R WCI -18
TORRINGTON     FAIR       2  -6  69 W9        30.41R WCI -13
PINE BLUFFS    FAIR      -8 -13  77 MISG      30.34R

$$




USA.gov is the U.S. government's official web portal to all federal, state and local government web resources and services.